Weather History for KIRK - March, 2013

Change the Weather History Date:

Monday, March 25, 2013

  Actual Average Record
Temperature  
Mean Temperature 30 °F 44 °F  
Max Temperature 33 °F 55 °F 79 °F (1928)
Min Temperature 27 °F 34 °F 9 °F (1965)
Degree Days  
Heating Degree Days 35 21  
Month to date heating degree days 838 638  
Since 1 July heating degree days 5218 5171  
Cooling Degree Days 0 0  
Month to date cooling degree days 0 0  
Year to date cooling degree days 0 0  
Moisture  
Dew Point 24 °F    
Average Humidity 77    
Maximum Humidity 92    
Minimum Humidity 61    
Precipitation  
Precipitation 0.04 in 0.08 in 3.16 in (1920)
Month to date precipitation 3.20 2.08  
Year to date precipitation 8.65 4.88  
Sea Level Pressure  
Sea Level Pressure 30.02 in    
Wind  
Wind Speed 11 mph (NW)    
Max Wind Speed 20 mph    
Max Gust Speed 25 mph    
Visibility 5 miles    
Events Snow    
T = Trace of Precipitation, MM = Missing Value Source: NWS Daily Summary

Daily Weather History Graph

Daily Weather History Graph

Search for Another Location

Airport or City:

Trip Planner

Search our weather history database for the weather conditions in past years. The results will help you decide how hot, cold, wet, or windy it might be!

Date:

Astronomy

Mar. 25, 2013 Rise Set
Actual Time 7:05 AM CDT 7:27 PM CDT
Civil Twilight 6:37 AM CDT 7:54 PM CDT
Nautical Twilight 6:06 AM CDT 8:26 PM CDT
Astronomical Twilight 5:33 AM CDT 8:59 PM CDT
Moon 5:59 PM CDT (3/25) 5:48 AM CDT (3/25)
Length of Visible Light 13h 16m
Length of Day
12h 22m
Waxing Gibbous, 96% of the Moon is Illuminated
Mar 25
Waxing Gibbous
Mar 27
Full
Apr 2
Last Quarter
Apr 10
New
Apr 18
First Quarter

Hourly Weather History & Observations

Time (CDT) Temp. Windchill Dew Point Humidity Pressure Visibility Wind Dir Wind Speed Gust Speed Precip Events Conditions
12:07 AM 28.4 °F 19.1 °F 26.6 °F 93% 29.92 in 1.8 mi NW 10.4 mph - 0.00 in Snow Light Snow
12:11 AM 28.4 °F 19.1 °F 26.6 °F 93% 29.92 in 2.0 mi NW 10.4 mph - 0.00 in Snow Light Snow
12:23 AM 28.4 °F 19.1 °F 26.6 °F 93% 29.92 in 1.8 mi NW 10.4 mph - 0.00 in Snow Light Snow
12:37 AM 28.4 °F 19.7 °F 26.6 °F 93% 29.92 in 1.8 mi WNW 9.2 mph - 0.01 in Snow Light Snow
12:45 AM 28.4 °F 19.1 °F 26.6 °F 93% 29.92 in 2.0 mi WNW 10.4 mph - 0.01 in Snow Light Snow
12:55 AM 28.0 °F 18.6 °F 26.1 °F 92% 29.96 in 2.5 mi WNW 10.4 mph - 0.01 in Snow Light Snow
1:18 AM 28.4 °F 18.5 °F 26.6 °F 93% 29.93 in 4.0 mi WNW 11.5 mph - 0.00 in Snow Light Snow
1:55 AM 28.9 °F 19.2 °F 26.1 °F 89% 29.96 in 4.0 mi WNW 11.5 mph - 0.00 in   Overcast
2:28 AM 28.4 °F 18.0 °F 24.8 °F 86% 29.92 in 2.0 mi WNW 12.7 mph - 0.00 in Snow Light Snow
2:55 AM 27.0 °F 17.3 °F 25.0 °F 92% 29.96 in 2.0 mi WNW 10.4 mph - 0.00 in Snow Light Snow
3:20 AM 26.6 °F 16.8 °F 24.8 °F 93% 29.92 in 5.0 mi WNW 10.4 mph - 0.00 in   Overcast
3:46 AM 26.6 °F 17.5 °F 24.8 °F 93% 29.92 in 5.0 mi WNW 9.2 mph - 0.00 in   Overcast
3:55 AM 27.0 °F 18.0 °F 25.0 °F 92% 29.96 in 4.0 mi WNW 9.2 mph - 0.00 in Snow Light Snow
4:16 AM 28.4 °F 20.4 °F 24.8 °F 86% 29.92 in 3.0 mi NW 8.1 mph - 0.00 in Snow Light Snow
4:30 AM 28.4 °F 20.4 °F 24.8 °F 86% 29.92 in 3.0 mi NW 8.1 mph - 0.01 in Snow Light Snow
4:33 AM 28.4 °F 19.7 °F 24.8 °F 86% 29.92 in 3.0 mi NW 9.2 mph - 0.01 in Snow Light Snow
4:35 AM 28.4 °F 20.4 °F 24.8 °F 86% 29.92 in 2.5 mi NW 8.1 mph - 0.01 in Snow Light Snow
4:41 AM 28.4 °F 21.2 °F 24.8 °F 86% 29.92 in 1.8 mi NW 6.9 mph - N/A Snow Light Snow
4:55 AM 27.0 °F 19.5 °F 25.0 °F 92% 29.96 in 2.0 mi NW 6.9 mph - 0.01 in Snow Light Snow
5:16 AM 26.6 °F 18.2 °F 24.8 °F 93% 29.92 in 2.5 mi WNW 8.1 mph - 0.00 in   Overcast
5:24 AM 26.6 °F 17.5 °F 24.8 °F 93% 29.93 in 2.5 mi WNW 9.2 mph - N/A Snow Light Snow
5:55 AM 27.0 °F 18.0 °F 25.0 °F 92% 29.98 in 2.5 mi WNW 9.2 mph - 0.00 in Snow Light Snow
6:03 AM 26.6 °F 18.2 °F 24.8 °F 93% 29.94 in 2.0 mi NW 8.1 mph - 0.00 in Snow Light Snow
6:22 AM 28.4 °F 20.4 °F 24.8 °F 86% 29.94 in 3.0 mi NW 8.1 mph - 0.00 in Snow Light Snow
6:33 AM 26.6 °F 18.2 °F 24.8 °F 93% 29.94 in 2.5 mi NW 8.1 mph - 0.00 in Snow Light Snow
6:45 AM 28.4 °F 20.4 °F 24.8 °F 86% 29.95 in 2.5 mi NW 8.1 mph - 0.00 in Snow Light Snow
6:55 AM 28.0 °F 19.3 °F 25.0 °F 88% 30.00 in 3.0 mi NW 9.2 mph - 0.00 in Snow Light Snow
7:13 AM 28.4 °F 20.4 °F 24.8 °F 86% 29.96 in 2.5 mi WNW 8.1 mph - 0.00 in Snow Light Snow
7:21 AM 28.4 °F 20.4 °F 24.8 °F 86% 29.96 in 1.5 mi NW 8.1 mph - 0.01 in Snow Light Snow
7:40 AM 28.4 °F 19.7 °F 24.8 °F 86% 29.97 in 1.2 mi NW 9.2 mph - 0.01 in Snow Light Snow
7:55 AM 28.0 °F 19.3 °F 25.0 °F 88% 30.02 in 1.2 mi NW 9.2 mph - 0.01 in Snow Light Snow
8:24 AM 28.4 °F 19.7 °F 26.6 °F 93% 29.98 in 0.8 mi NW 9.2 mph - 0.01 in Snow Light Snow
8:31 AM 28.4 °F 19.7 °F 26.6 °F 93% 29.99 in 1.0 mi NW 9.2 mph - 0.01 in Snow Light Snow
8:52 AM 28.4 °F 20.4 °F 26.6 °F 93% 30.00 in 0.8 mi NW 8.1 mph - 0.01 in Snow Light Snow
8:55 AM 28.0 °F 18.1 °F 26.1 °F 92% 30.04 in 0.8 mi NW 11.5 mph - 0.01 in Snow Light Snow
9:03 AM 28.4 °F 19.7 °F 26.6 °F 93% 30.00 in 0.8 mi NW 9.2 mph - 0.00 in Snow Light Snow
9:08 AM 28.4 °F 18.5 °F 26.6 °F 93% 30.00 in 1.0 mi NW 11.5 mph - 0.00 in Snow Light Snow
9:55 AM 30.0 °F 19.5 °F 25.0 °F 82% 30.06 in 2.0 mi NNW 13.8 mph - 0.01 in Snow Light Snow
10:08 AM 28.4 °F 16.6 °F 24.8 °F 86% 30.03 in 4.0 mi NNW 16.1 mph 25.3 mph 0.00 in   Haze
10:21 AM 28.4 °F 16.6 °F 23.0 °F 80% 30.04 in 5.0 mi NNW 16.1 mph 25.3 mph 0.00 in   Haze
10:28 AM 28.4 °F 17.5 °F 24.8 °F 86% 30.04 in 4.0 mi NNW 13.8 mph - 0.00 in   Haze
10:42 AM 28.4 °F 15.8 °F 21.2 °F 74% 30.05 in 9.0 mi NNW 18.4 mph 25.3 mph 0.00 in   Overcast
10:55 AM 28.9 °F 16.5 °F 21.9 °F 75% 30.09 in 7.0 mi NNW 18.4 mph 24.2 mph 0.00 in   Overcast
11:14 AM 28.4 °F 19.1 °F 21.2 °F 74% 30.05 in 10.0 mi North 10.4 mph 23.0 mph N/A   Overcast
11:55 AM 28.9 °F 18.6 °F 21.9 °F 75% 30.10 in 8.0 mi NNW 12.7 mph 21.9 mph 0.00 in Snow Light Snow
12:55 PM 28.9 °F 18.6 °F 21.0 °F 72% 30.11 in 7.0 mi NNW 12.7 mph 21.9 mph 0.00 in Snow Light Snow
1:55 PM 30.0 °F 18.7 °F 19.9 °F 66% 30.12 in 10.0 mi NNW 16.1 mph - 0.00 in   Overcast
2:22 PM 30.2 °F 21.3 °F 19.4 °F 64% 30.08 in 10.0 mi NNW 10.4 mph - N/A   Overcast
2:29 PM 30.2 °F 20.2 °F 19.4 °F 64% 30.08 in 10.0 mi NW 12.7 mph 19.6 mph N/A   Overcast
2:41 PM 30.2 °F 21.3 °F 19.4 °F 64% 30.09 in 10.0 mi NNW 10.4 mph - N/A   Overcast
2:55 PM 30.9 °F 20.7 °F 19.0 °F 61% 30.13 in 10.0 mi NW 13.8 mph - N/A   Overcast
3:55 PM 32.0 °F 25.6 °F 21.0 °F 64% 30.14 in 10.0 mi NNW 6.9 mph - N/A   Mostly Cloudy
4:55 PM 33.1 °F 25.5 °F 21.0 °F 61% 30.16 in 10.0 mi NW 9.2 mph - N/A   Partly Cloudy
5:55 PM 33.1 °F 24.4 °F 21.9 °F 64% 30.17 in 10.0 mi NNW 11.5 mph 20.7 mph N/A   Scattered Clouds
6:55 PM 32.0 °F 22.1 °F 21.9 °F 66% 30.20 in 10.0 mi NNW 13.8 mph 18.4 mph N/A   Mostly Cloudy
7:55 PM 30.9 °F 22.8 °F 21.0 °F 67% 30.22 in 10.0 mi NW 9.2 mph - N/A   Overcast
8:55 PM 30.0 °F 21.7 °F 21.9 °F 72% 30.24 in 10.0 mi WNW 9.2 mph - N/A   Scattered Clouds
9:55 PM 28.9 °F 21.1 °F 21.0 °F 72% 30.25 in 10.0 mi WNW 8.1 mph - N/A   Clear
10:55 PM 28.0 °F 20.0 °F 21.0 °F 75% 30.27 in 10.0 mi WNW 8.1 mph - N/A   Overcast
11:55 PM 28.0 °F 20.0 °F 21.9 °F 78% 30.28 in 10.0 mi WNW 8.1 mph - N/A   Overcast